Regional Weather Roundup
Issued by NWS Wilmington, NC

Home | Current Version | Previous Version | Text Only | Print | Product List | Glossary On
Versions: 1 2 3 4 5 6 7 8 9 10 11 12 13 14 15 16 17 18 19 20 21 22 23 24 25 26 27 28 29 30 31 32 33 34 35 36 37 38 39 40 41 42 43 44 45 46 47 48 49 50
000
ASUS42 KILM 252213
RWRILM
RWRILM
REGIONAL HOURLY WEATHER ROUNDUP
NATIONAL WEATHER SERVICE WILMINGTON NC
600 PM EDT MON MAY 25 2015

NOTE: "FAIR" INDICATES FEW OR NO CLOUDS BELOW 12,000 FEET WITH NO
SIGNIFICANT WEATHER AND/OR OBSTRUCTIONS TO VISIBILITY.

...............WFO WILMINGTON COUNTY WARNING AREA...............

......COASTAL NC AND SC COUNTIES......

CITY           SKY/WX    TMP DP  RH WIND       PRES   REMARKS
WILMINGTON     MOSUNNY   78  61  55 S9        30.29F
N MYRTLE BEACH SUNNY     77  64  64 SE7       30.29F
MYRTLE BEACH   MOSUNNY   77  64  65 SE12      30.31F

......INLAND NC AND SC COUNTIES.......

CITY           SKY/WX    TMP DP  RH WIND       PRES   REMARKS
LUMBERTON      MOSUNNY   84  59  42 SE10      30.25F
ELIZABETHTOWN  SUNNY     83  55  37 S7        30.27S
WHITEVILLE     SUNNY     80  60  50 SE7       30.28S
FLORENCE       MOSUNNY   82  63  52 S14       30.25F
DARLINGTON     PTSUNNY   82  59  44 S9        30.25F

....................REST OF NORTH CAROLINA......................

.........EASTERN NC.........

CITY           SKY/WX    TMP DP  RH WIND       PRES   REMARKS
CAPE HATTERAS  MOSUNNY   76  61  59 S9        30.32F
JACKSONVILLE   MOSUNNY   79  57  47 S10       30.30S
MOREHEAD CITY  SUNNY     75  61  61 S8        30.31S
KENANSVILLE    SUNNY     80  56  43 S5        30.29S
NEW BERN       SUNNY     79  59  50 SE10      30.31S
ELIZABETH CITY SUNNY     78  56  46 S15       30.29S

.........CENTRAL NC.........

CITY           SKY/WX    TMP DP  RH WIND       PRES   REMARKS
RALEIGH DURHAM MOSUNNY   83  55  38 SW9       30.26S
ROCKY MOUNT    SUNNY     84  56  38 S8        30.26S
ROANOKE RAPIDS NOT AVBL
FAYETTEVILLE   PTSUNNY   83  56  39 S8        30.25S
HOFFMAN        NOT AVBL

.........WESTERN NC.........

CITY           SKY/WX    TMP DP  RH WIND       PRES   REMARKS
CHARLOTTE      PTSUNNY   82  56  40 SW7       30.25F
GREENSBORO     MOSUNNY   81  55  40 S9        30.25S
HICKORY        NOT AVBL
BOONE          NOT AVBL
ASHEVILLE      NOT AVBL

.....................REST OF SOUTH CAROLINA.....................

.........EASTERN SC.........

CITY           SKY/WX    TMP DP  RH WIND       PRES   REMARKS
CHARLESTON     MOSUNNY   79  66  64 E9        30.25F
BEAUFORT MCAS  SUNNY     81  70  69 E16       30.24S
HILTON HEAD    MOSUNNY   79  70  73 NE10      30.26S

.........CENTRAL SC.........

CITY           SKY/WX    TMP DP  RH WIND       PRES   REMARKS
COLUMBIA       PTSUNNY   83  62  49 E12       30.22F
ORANGEBURG     SUNNY     82  65  56 E8        30.24F
SUMTER SHAW    NOT AVBL

.........WESTERN SC.........

CITY           SKY/WX    TMP DP  RH WIND       PRES   REMARKS
GREENVILLE     NOT AVBL
ROCK HILL      CLOUDY    81  61  50 S7        30.25F
ANDERSON       SUNNY     82  60  47 VRB5      30.22F
CLEMSON        NOT AVBL
GREENWOOD      SUNNY     84  61  45 E7        30.23F


...................COASTAL AND OFFSHORE REPORTS..................

................LOCAL PIERS AND NC RESERVE................


STATION/POSITION TIME  SKY/WX   TEMP    WIND        PRES    VSBY
                                AIR SEA DIR/SP/G
                 (UTC)          (F)     (DEG/KT/KT) (MB)    (MI)
JOHNY MRCER PIER 2100            75 78  160/  8/ 11 1025.6F
NC RESRV MASNBRO NOT AVBL
OCEAN CREST PIER 2102            75 78   80/ 10/ 11 1025.2F
SPRINGMAID  PIER 2100            76 76   90/  7/  8 1026.1F


................COASTAL AND OFFSHORE BUOYS................


STATION/POSITION TIME  SKY/WX   TEMP    WIND        PRES    VSBY
                                AIR SEA DIR/SP/G
                 (UTC)          (F)     (DEG/KT/KT) (MB)    (MI)
DIMNDSHOAL 41025 2150            75 77  160/ 10/ 14 1026.7F
WVE H/P(F/S)=  2/ 7 WND WVE H/P(F/S)=  2/ 4 SWL H/P/D(F/S/D)=  2/ 60/ 7

CAPE LOOKOUT     2200            74     160/  9/ 10 1026.1F
ONSLOW BAY 41036 NOT AVBL
5 WRITEBCH 41038 2108            75 77  160/  8/ 12 1026.0F
MASONBORO  41110 2119               77                N/A
WVE H/P(F/S)=  2/ 6 WND WVE H/P(F/S)=  2/ 6

WILM HARBR 41108 2111               76                N/A
WVE H/P(F/S)=  2/ 5 WND WVE H/P(F/S)=  2/ 5

27WRITEBCH 41037 2100            72 77  160/ 10/ 12   N/A
FRYING PAN 41013 2150            76 75  140/ 10/ 12 1026.3F
WVE H/P(F/S)=  3/ 6 WND WVE H/P(F/S)=  2/ 5 SWL H/P/D(F/S/D)=  2/130/ 6

SUNST NRSH 41024 2108            74     140/  8/ 12 1026.0R
CAPRS NRSH 41029 2108            76     100/ 10/ 12 1025.1F
EDISTO     41004 2150            76 76  100/ 10/ 12 1024.3F
WVE H/P(F/S)=  4/ 6 WND WVE H/P(F/S)=  2/ 5 SWL H/P/D(F/S/D)=  3/ 6



..........OFFSHORE BUOYS BEYOND 100 NM OFFSHORE...........
.....IN A TRIANGLE---HAT TO BERMUDA TO BAHAMAS TO HAT.....


STATION/POSITION TIME  SKY/WX   TEMP    WIND        PRES    VSBY
                                AIR SEA DIR/SP/G
                 (UTC)          (F)     (DEG/KT/KT) (MB)    (MI)
150E HAT   41001 NOT AVBL
W BERMUDA  41048 2150            72 74   70/ 14/ 16 1026.7F
WVE H/P(F/S)=  4/ 6 WND WVE H/P(F/S)=  3/ 6 SWL H/P/D(F/S/D)=  2/ 50/ 8

ATLANTIC S 41049 2150            75 78   20/ 14/ 16 1021.0R
WVE H/P(F/S)=  4/ 7 WND WVE H/P(F/S)=  3/ 6 SWL H/P/D(F/S/D)=  3/ 60/ 7

E BAHAMAS  41046 2150            80 82   50/ 14/ 17 1019.8R
WVE H/P(F/S)=  4/ 8 WND WVE H/P(F/S)=  3/ 6 SWL H/P/D(F/S/D)=  3/ 50/ 8

NE BAHAMAS 41047 2150            78 79   50/ 16/ 17 1022.4S
WVE H/P(F/S)=  4/ 6 WND WVE H/P(F/S)=  3/ 6 SWL H/P/D(F/S/D)=  2/120/ 7

120E CANVRL41010 2120            79 81  100/ 12/ 16 1022.7F

END


USA.gov is the U.S. government's official web portal to all federal, state and local government web resources and services.